SIRIUS 1 1 26390U 00035A 10211.02703457 .00000052 00000-0 10000-3 0 7327 2 26390 061.1573 251.8752 2711302 270.2158 059.2116 01.00277329 36932 SIRIUS 2 1 26483U 00051A 10205.70167082 -.00000038 +00000-0 +10000-3 0 03763 2 26483 063.7963 131.9016 2701535 267.9490 061.2639 01.00278304036214 SIRIUS 3 1 26626U 00077A 10209.36447957 -.00000150 +00000-0 +10000-3 0 06317 2 26626 063.8678 011.5810 2684021 269.9652 059.5938 01.00274685035381 XM-2 1 26724U 01012A 10211.13704341 .00000000 00000-0 10000-3 0 8086 2 26724 000.0808 268.3317 0003157 323.8365 039.6144 01.00269348 34383 XM-1 1 26761U 01018A 10211.21429507 -.00000203 00000-0 00000+0 0 6001 2 26761 000.0844 268.1005 0000374 196.2706 195.2989 01.00269995 33850 XM-3 1 28626U 05008A 10210.61340323 .00000000 00000-0 10000-3 0 7715 2 28626 000.0244 087.7556 0001833 163.9180 191.2711 01.00272079 19883 XM-4 1 29520U 06049A 10210.39104505 .00000000 00000-0 10000-3 0 5606 2 29520 000.0311 289.1148 0000906 245.1561 158.4378 01.00270425 13828